STARLINK-3568, 51856

Orbit data source: Space-Track

STARLINK-3568, 51856 is a payload satellite owned by SpaceX/Seattle (US) in LEO that was launched on Thu, 03 Mar 2022 UTC via an FALCON 9 launch vehicle from the Air Force Eastern Test Range (AFETR). Payload-class satellites include a variety of spacecraft equipped with specific instruments for various scientific and technological missions. These include communications satellites like Starlink; space stations such as the ISS; scientific satellites like the Hubble; Earth observation satellites from companies like Planet Labs, Umbra, and HawkEye 360; GPS; miniature CubeSats for education and research; and military/defense satellites.

Loading next visibility...
Identifier
51856, 2022-022E
Orbit
LEO
Country
Flag of USUS
Related business
Manufacturer
SpaceX/Seattle
Mission
Operational Commercial Communications
Bus & Motor
STARLINK, Unknown motor
Mass
297 kg wet, ~275 kg dry
Launch date (UTC)
2022-03-03 (4 years ago)
Launch vehicle
FALCON 9
Launch site
Air Force Eastern Test Range (AFETR)
Object type
Payload
Rocket body
Debris
Shape & HBR
Box + 1 Pan, 10.1 m
Radar Cross Section
13.562 m², Large (>1 m²)

Expand to show TLE details & history
Last TLE update: 2 days ago

TLE from 2 days ago
0 STARLINK-3568
1 51856U 22022E   26171.45215605 -.00000455  00000-0 -10482-4 0  9993
2 51856  53.1590 277.6947 0000990  85.1674 274.9430 15.08828927238564
Epoch: 2026-06-20T10:51Z
TLE epoch observation values (Epoch: 2026-06-20T10:51:06.282Z)
Latitude
-0.00007°
Longitude
-153.7481°
Altitude
540.61 km
Speed
7.593 km/s
True Right ascension
18h 30m 46s
True Declination
0° 00' 00"
Sunlit
Object was in full shadow at epoch
Visualization orbit readout
Latitude
Unknown
Longitude
Unknown
Altitude
Unknown
Speed
Unknown
Apparent Right ascension
Unknown
Apparent Declination
Unknown
Sunlit
N/A
Visualization observer readout
Local Sidereal Time
21:33:41
Azimuth
Unknown
Elevation
Unknown
Doppler factor
Unknown
Orbital elements
Apogee altitude
540.716 km
Perigee altitude
539.347 km
Semi-major axis
6,918.169 km
Eccentricity
0.0001
Inclination
53.159°
RAAN
277.6947°
Arg. of periapsis
85.1674°
True anomaly
274.9317°
Mean anomaly
274.943°
Eccentric anomaly
274.93735°
Mean motion
3.77187 °/min
Orbital period
95.44 mins
BSTAR
-0.000010482
Loading maneuver chart data...
Computing Atmospheric mass density...
Loading historical data...
Loading historical data...
Loading historical data...
Loading historical data...
Loading historical data...
Loading historical data...
Loading historical data...

Documentation

Showing up to 5 results
|